Location: Mount Clive
(40.6167°S, 175.8167°E)
Time: 23:57:45
(UTC+00:00)

Daily predictions for brighter satellites

Satellite Brightness Start Highest point End
(mag) Time Altitude Azimuth Time Altitude Azimuth Time Altitude Azimuth
USA 59 Rocket 3.3 15:07:13 27° ESE 15:07:13 27° ESE 15:11:42 10° E
USA 215 3.7 16:20:34 10° ENE 16:26:36 54° SE 16:26:36 54° SE
USA 59 Rocket 1.5 16:53:49 51° SSW 16:56:26 86° SE 17:03:27 10° NE
Atlas Centaur 2 4.0 16:58:17 17° N 16:58:42 17° NNE 17:01:44 10° NE
Cosmos 2221 3.8 16:56:28 10° NNE 17:00:25 39° E 17:04:28 10° SSE
BREEZE-M DEB (TANK) 4.2 17:06:41 30° SSE 17:06:41 30° SSE 17:13:34 10° ESE
Cosmos 1331 Rocket 4.0 17:17:21 69° NNW 17:17:21 69° NNW 17:22:11 10° N
Meteor 2-21 4.3 17:14:09 10° NNW 17:20:17 69° W 17:26:34 10° S
SL-4 R/B 2.5 17:21:14 59° ESE 17:21:14 59° ESE 17:24:40 10° SE
Lacrosse 4 Rocket 2.7 17:25:35 29° N 17:25:35 29° N 17:27:44 10° NNE
Cosmos 1452 Rocket 3.8 17:28:37 48° NW 17:28:37 48° NW 17:32:56 10° N
Cosmos 2034 Rocket 4.3 17:22:23 10° S 17:28:38 66° E 17:34:45 10° NNE
Spot 4 Rocket 3.9 17:24:03 10° NNE 17:29:13 84° WNW 17:31:10 40° SSW
Cosmos 1513 Rocket 4.4 17:28:41 39° SSW 17:30:56 62° W 17:37:01 10° N
Cosmos 44 Rocket 3.6 17:31:57 40° SSW 17:33:39 68° ESE 17:38:43 10° NE
Cosmos 1302 Rocket 4.1 17:33:17 27° S 17:36:12 74° ESE 17:41:25 10° NNE
Meteor 1-26 Rocket 4.3 17:43:10 10° NNW 17:48:36 51° WSW 17:54:17 10° S
Meteor 2-21 Rocket 4.5 17:42:50 10° NNW 17:48:53 57° W 17:55:04 10° S
Meteor 1-31 Rocket 4.1 17:47:15 10° NE 17:50:48 39° ESE 17:54:24 10° S
ATLAS 5 CENTAUR R/B 4.3 17:53:51 10° NW 17:55:45 11° NNW 17:57:18 10° NNW
Cosmos 1656 3.8 17:53:04 16° SSW 17:57:42 76° ESE 18:03:12 10° NNE
COSMO-SKYMED 1 4.0 17:53:58 10° SSE 17:58:08 40° E 18:02:15 10° NNE
Cosmos 1726 2.3 17:56:30 21° S 17:58:24 56° E 18:01:29 10° NNE
Tiangong -2.3 17:58:55 72° SW 17:59:09 79° S 18:02:20 10° E
SJ-7 4.4 17:55:41 10° N 17:59:41 59° W 18:01:29 31° SSW
CORIOLIS 4.1 17:55:04 10° N 18:00:26 72° WNW 18:05:55 10° SSW
Cosmos 1842 Rocket 3.7 17:57:38 10° N 18:02:06 79° E 18:06:39 10° S
Lacrosse 5 rocket 1.1 18:01:35 48° W 18:02:06 53° NW 18:05:41 10° NNE
YAOGAN 11 4.4 17:59:44 10° SSE 18:04:16 70° ENE 18:08:39 10° N
PSLV R/B 4.1 18:01:38 10° NNW 18:05:34 35° W 18:06:08 33° W
CZ-3 R/B 3.8 17:58:08 10° NW 18:06:30 21° N 18:10:48 10° NE
Cosmos 1464 Rocket 4.4 18:02:38 10° SSW 18:08:36 41° W 18:14:31 10° NNW
Cosmos 1269 Rocket 4.3 18:03:52 10° N 18:09:09 72° ENE 18:14:29 10° SSE
USA 215 3.7 18:03:44 10° NNE 18:09:58 46° NW 18:13:57 22° WSW
Cosmos 1536 3.7 18:07:37 10° S 18:11:25 48° E 18:15:10 10° NNE
Cosmos 1607 3.8 18:07:28 10° NW 18:13:29 62° SW 18:19:33 10° SSE
Okean 1 4.0 18:10:20 10° N 18:14:02 54° E 18:17:49 10° SSE
Tsikada Rocket 3.9 18:08:14 10° NNW 18:14:28 71° W 18:20:44 10° S
Cosmos 1743 3.2 18:14:48 32° WSW 18:15:28 34° W 18:18:48 10° NNW
Cosmos 614 Rocket 4.2 18:14:06 10° NW 18:18:57 44° WSW 18:23:52 10° S
Cosmos 1766 Rocket 4.1 18:21:00 15° SSW 18:24:10 37° W 18:28:12 10° NNW
NOSS 3-4 (C) 3.9 18:17:54 10° SSW 18:24:57 65° SE 18:31:00 10° NE
NOSS 3-4 (A) 3.9 18:18:01 10° SSW 18:25:04 66° SE 18:31:04 10° NE
Meteor 1-10 Rocket 4.3 18:19:56 10° N 18:25:54 85° W 18:31:58 10° S
Cosmos 1408 Rocket 3.9 18:22:19 10° S 18:26:45 67° E 18:31:08 10° NNE
ATLAS CENTAUR R/B 2.2 18:28:22 20° WNW 18:28:46 21° NW 18:31:09 10° N
Genesis I 3.4 18:30:41 10° NNW 18:34:15 65° ENE 18:37:49 10° SE
CZ-2C R/B 2.9 18:31:24 10° N 18:35:04 49° W 18:38:47 10° SSW
Cosmos 1340 Rocket 2.7 18:31:12 10° N 18:35:06 83° W 18:39:07 10° S
Cosmos 1634 Rocket 4.0 18:29:22 10° S 18:35:45 73° W 18:42:05 10° N
Cosmos 1697 Rocket 3.1 18:31:28 10° SSW 18:37:11 64° ESE 18:42:49 10° NE
Cosmos 2221 3.9 18:35:07 10° WNW 18:37:55 17° WSW 18:40:45 10° SSW
Helios 1B rocket 2.4 18:36:56 10° N 18:40:50 59° W 18:44:46 10° SSW
USA 32 4.0 18:36:20 10° NNW 18:41:34 71° W 18:46:53 10° S
SMAP 4.2 18:38:12 10° NNW 18:42:01 25° W 18:45:54 10° SW
Meteor 1-11 Rocket 3.7 18:37:34 10° S 18:43:13 83° W 18:48:44 10° N
USA 59 Rocket 2.7 18:40:24 13° WSW 18:45:02 20° W 18:49:54 10° NW
SAR-Lupe-2 3.6 18:42:35 10° NNE 18:46:11 83° ESE 18:49:50 10° SSW
SKYMED 2 3.6 18:41:53 10° S 18:46:14 59° WSW 18:50:31 10° NNW
Atlas Centaur 2 3.5 18:42:56 10° NW 18:46:32 21° N 18:49:40 10° NE
Cosmos 1992 Rocket 4.3 18:42:40 10° SSW 18:47:46 50° WNW 18:52:49 10° N
Helios 1A 4.0 18:45:15 10° SSE 18:49:17 49° E 18:53:15 10° N
Cosmos 1151 Rocket 3.7 18:45:05 10° N 18:49:21 59° E 18:53:43 10° SSE
Resurs 01 Rocket 4.4 18:48:40 10° E 18:50:31 12° ESE 18:52:23 10° SE
CZ-4B R/B 4.1 18:47:11 10° NNE 18:52:01 57° ESE 18:56:47 10° S
CZ-4 R/B 3.7 18:53:20 10° ENE 18:56:19 21° ESE 18:59:18 10° SSE
Cosmos 1980 Rocket 3.3 18:51:13 10° SSW 18:56:38 43° ESE 19:02:00 10° NE
SL-4 R/B 3.2 18:56:02 10° WSW 18:59:37 26° SSW 19:03:04 10° SE
Meteor 1-27 Rocket 3.8 18:54:22 10° NNW 19:00:11 69° W 19:05:58 10° S
Cosmos 1975 4.3 18:57:36 10° S 19:01:19 37° ESE 19:04:59 10° NNE
SL-08 R/B 3.8 18:57:36 10° SSE 19:02:25 68° ENE 19:07:16 10° N
CBERS 1 LM4 rocket 4.4 18:57:47 10° NNE 19:02:32 88° ESE 19:07:22 10° SSW
ADEOS 4.2 18:58:23 10° NNE 19:03:32 61° ESE 19:08:44 10° S
IGS 5A 3.9 19:00:48 10° N 19:04:42 42° W 19:08:40 10° SSW
Cosmos 1833 Rocket 3.1 19:01:48 10° NW 19:07:05 39° WSW 19:12:26 10° S
COSMOS 2406 4.3 19:05:54 10° N 19:11:23 52° ENE 19:16:56 10° SSE
